Location: Gleizolles
(44.4833°N, 6.7667°E)
Time: 15:06:26
(UTC+00:00)

deb Explorer IX - Pass Details

Date: 25 June 2024
Orbit: 510 x 878 km, 38.7° (Epoch: 21 July)

Event Time Altitude Azimuth Distance (km) Brightness Sun altitude
Rises 10:30:51 0° 268° (W) 2,918 ? 65.1°
Reaches altitude 10° 10:33:17 10° 257° (WSW) 2,072 ? 65.3°
Maximum altitude 10:37:31 31° 197° (SSW) 1,245 ? 65.8°
Drops below altitude 10° 10:42:12 10° 136° (SE) 2,293 ? 66.2°
Sets 10:45:02 0° 127° (SE) 3,284 ? 66.5°
